Location: Hradec Kralove
(50.2170°N, 15.8330°E)
Time: 13:19:03
(UTC+02:00)

Explorer 7 - Pass Details

Date: 02 February 2023
Orbit: 478 x 657 km, 50.3° (Epoch: 26 March)

Event Time Altitude Azimuth Distance (km) Brightness Sun altitude
Rises 15:41:37 0° 277° (W) 2,802 11.1 8.5°
Reaches altitude 10° 15:43:50 10° 277° (W) 1,931 10.4 8.3°
Maximum altitude 15:48:17 87° 191° (S) 626 7.3 7.7°
Drops below altitude 10° 15:52:59 10° 100° (E) 2,030 9.3 7.1°
Sets 15:55:21 0° 100° (E) 2,958 10.1 6.8°
